Spokane, WA
on Friday, February 22, 2013

Friday
Previous Day Next Day
Daily Summary
 ActualAverageRecord
Temperature
Mean Temperature °F 34°F  
Max Temperature 38°F 41°F 57°F (1905)
Min Temperature 30°F 27°F -4°F (1910)
Degree Days
Heating Degree Days 31 31  
Month to date heating degree days 690 715  
Since 1 July heating degree days 4358 4648  
Cooling Degree Days 0 0  
Month to date cooling degree days 0 0  
Year to date cooling degree days 0 0  
Moisture
Dew Point 30°F   
Average Humidity 83    
Maximum Humidity 96    
Minimum Humidity 70    
Precipitation
Precipitation 0.22 in 0.05 in 0.51 in (1949)
Month to date precipitation 0.46 1.03  
Year to date precipitation 2.09 2.82  
Snow
Snow 1.30 in 0.20 in 3.50 in (1957)
Month to date snowfall 2.9 5.6  
Since 1 July snowfall 41.1 39.1  
Snow Depth 0.00 in   
Wind
Wind Speed 16 mph   
Max Wind Speed 30 mph   
Max Gust Speed 38 mph   
Visibility 6 miles   
Events Fog , Rain , Snow   

Key: T is trace of precipitation, MM is missing value
Source: NWS Daily Summary
Time(PST)TemperatureDew PointHumidity Pressure Visibility Wind DirectionWind SpeedGust SpeedPrecipitationEvents Conditions
12:53 AM 30.9°F 27.0°F 85% 29.99 in 10.0 miles South 11.5 mph - N/A   Mostly Cloudy
1:53 AM 30.0°F 27.0°F 88% 29.99 in 10.0 miles South 9.2 mph - N/A   Scattered Clouds
2:44 AM 30.2°F 26.6°F 86% 29.92 in 10.0 miles South 9.2 mph - N/A   Overcast
2:53 AM 30.0°F 27.0°F 88% 29.98 in 10.0 miles South 9.2 mph - N/A   Overcast
3:53 AM 30.9°F 28.0°F 89% 29.98 in 10.0 miles South 9.2 mph - N/A   Overcast
4:53 AM 30.9°F 28.9°F 92% 29.98 in 10.0 miles SSW 15.0 mph 24.2 mph N/A   Overcast
5:53 AM 32.0°F 28.9°F 88% 30.00 in 5.0 miles SSW 12.7 mph - 0.00 in Snow Light Snow
6:12 AM 30.2°F 28.4°F 93% 29.93 in 1.0 miles SSW 12.7 mph - 0.00 in Snow Light Snow
6:26 AM 30.2°F 28.4°F 93% 29.92 in 1.0 miles South 11.5 mph - 0.00 in Snow Light Snow
6:53 AM 30.9°F 28.9°F 92% 29.98 in 1.0 miles South 10.4 mph - 0.01 in Snow Light Snow
7:38 AM 32.0°F 28.4°F 87% 29.92 in 1.0 miles South 8.1 mph - 0.01 in Snow Light Snow
7:53 AM 32.0°F 30.0°F 92% 29.97 in 1.0 miles South 8.1 mph - 0.02 in Snow Light Snow
8:53 AM 33.1°F 30.0°F 89% 29.95 in 1.0 miles South 10.4 mph - 0.01 in Snow Light Snow
8:57 AM 33.8°F 30.2°F 87% 29.90 in 2.5 miles South 11.5 mph - 0.00 in Snow Light Snow
9:20 AM 33.8°F 30.2°F 87% 29.89 in 5.0 miles South 12.7 mph 19.6 mph 0.00 in Snow Light Snow
9:53 AM 34.0°F 30.0°F 85% 29.92 in 10.0 miles South 16.1 mph 21.9 mph 0.00 in   Overcast
10:44 AM 33.8°F 30.2°F 87% 29.83 in 10.0 miles South 17.3 mph 25.3 mph N/A   Overcast
10:53 AM 34.0°F 30.0°F 85% 29.89 in 8.0 miles South 16.1 mph 25.3 mph 0.00 in Snow Light Snow
11:08 AM 33.8°F 30.2°F 87% 29.83 in 2.0 miles South 18.4 mph 26.5 mph 0.00 in Snow Light Snow
11:24 AM 33.8°F 30.2°F 87% 29.82 in 2.0 miles South 16.1 mph 26.5 mph 0.00 in Snow Light Snow
11:53 AM 34.0°F 30.9°F 89% 29.86 in 8.0 miles South 16.1 mph 23.0 mph 0.00 in Snow Light Snow
12:20 PM 33.8°F 30.2°F 87% 29.78 in 2.0 miles South 16.1 mph 26.5 mph 0.00 in Snow Light Snow
12:33 PM 33.8°F 30.2°F 87% 29.77 in 1.5 miles South 17.3 mph 25.3 mph 0.01 in Rain , Snow Light Rain
12:45 PM 33.8°F 30.2°F 87% 29.77 in 1.0 miles South 13.8 mph 23.0 mph 0.02 in Snow Light Snow
12:53 PM 34.0°F 30.9°F 89% 29.82 in 1.2 miles South 11.5 mph - 0.02 in Snow Light Snow
1:04 PM 33.8°F 30.2°F 87% 29.76 in 0.8 miles South 10.4 mph 19.6 mph 0.01 in Snow Light Snow
1:23 PM 33.8°F 30.2°F 87% 29.75 in 0.5 miles South 9.2 mph - 0.03 in Fog , Snow Snow
1:53 PM 33.1°F 32.0°F 96% 29.78 in 0.5 miles South 9.2 mph - 0.07 in Fog , Snow Snow
2:53 PM 33.1°F 30.9°F 92% 29.75 in 0.5 miles South 13.8 mph 21.9 mph 0.04 in Snow Light Snow
3:41 PM 33.8°F 32.0°F 93% 29.68 in 0.5 miles South 15.0 mph 23.0 mph 0.02 in Snow Light Snow
3:53 PM 34.0°F 32.0°F 92% 29.73 in 1.0 miles South 15.0 mph 21.9 mph 0.03 in Snow Light Snow
4:35 PM 35.6°F 32.0°F 87% 29.66 in 3.0 miles South 18.4 mph 26.5 mph 0.01 in Snow Light Snow
4:53 PM 36.0°F 33.1°F 89% 29.70 in 3.0 miles SSW 19.6 mph 26.5 mph 0.02 in Rain Light Rain
5:09 PM 37.4°F 33.8°F 87% 29.64 in 7.0 miles SSW 26.5 mph 35.7 mph 0.00 in   Overcast
5:53 PM 37.9°F 34.0°F 86% 29.68 in 10.0 miles SSW 25.3 mph 35.7 mph 0.00 in   Overcast
6:37 PM 37.4°F 33.8°F 87% 29.63 in 10.0 miles SSW 24.2 mph 34.5 mph N/A   Overcast
6:53 PM 37.9°F 34.0°F 86% 29.66 in 10.0 miles SSW 26.5 mph 35.7 mph N/A   Overcast
7:53 PM 37.0°F 34.0°F 89% 29.64 in 10.0 miles SSW 26.5 mph 38.0 mph N/A   Mostly Cloudy
8:32 PM 37.4°F 33.8°F 87% 29.58 in 10.0 miles SSW 25.3 mph 34.5 mph N/A   Mostly Cloudy
8:53 PM 37.0°F 33.1°F 86% 29.61 in 10.0 miles SSW 28.8 mph 36.8 mph N/A   Mostly Cloudy
9:53 PM 36.0°F 32.0°F 86% 29.65 in 10.0 miles SW 25.3 mph 34.5 mph 0.00 in   Mostly Cloudy
10:53 PM 35.1°F 27.0°F 72% 29.68 in 10.0 miles WSW 20.7 mph 29.9 mph N/A   Scattered Clouds
11:53 PM 34.0°F 24.1°F 67% 29.70 in 10.0 miles WSW 25.3 mph 31.1 mph N/A   Mostly Cloudy
Moon Phase
Feb. 22 Feb. 25 Mar. 04 Mar. 11 Mar. 19
Sunrise:06:42 AM (PST) Moon Rise:02:32 PM (PST)
Sunset:05:24 PM (PST) Moon Set:04:40 AM (PST)

Copyright © 2014 The Weather Underground, Inc.